Location: Marcé
(47.5801°N, 0.3280°W)
Time: 10:25:20
(UTC+02:00)

FENGYUN 1C DEB - Visible Passes

Search period start: 26 June 2022 00:00
Search period end: 06 July 2022 00:00
Orbit: 679 x 1091 km, 98.3° (Epoch: 25 June)

Date Brightness Start Highest point End Pass type
(mag) Time Alt. Az. Time Alt. Az. Time Alt. Az.
26 Jun ? 00:36:26 10° NNE 00:42:26 80° ESE 00:46:56 21° S visible
26 Jun ? 02:18:58 10° NNW 02:23:21 22° WNW 02:28:01 10° WSW visible
26 Jun ? 22:55:19 10° NE 22:58:32 14° E 23:01:52 10° ESE visible
27 Jun ? 00:34:41 10° NNE 00:40:44 78° ESE 00:45:16 21° S visible
27 Jun ? 02:17:11 10° N 02:21:40 23° WNW 02:26:27 10° WSW visible
27 Jun ? 22:53:39 10° NE 22:56:49 14° E 23:00:05 10° ESE visible
28 Jun ? 00:32:58 10° NNE 00:39:03 76° ESE 00:43:36 21° S visible
28 Jun ? 02:15:23 10° N 02:19:59 23° WNW 02:24:52 10° WSW visible
28 Jun ? 22:51:58 10° NE 22:55:06 14° E 22:58:18 10° ESE visible
29 Jun ? 00:31:13 10° NNE 00:37:21 75° ESE 00:41:56 21° S visible
29 Jun ? 02:13:36 10° N 02:18:18 24° WNW 02:23:17 10° WSW visible
29 Jun ? 22:50:19 10° NE 22:53:23 14° E 22:56:30 10° ESE visible
30 Jun ? 00:29:28 10° NNE 00:35:40 74° ESE 00:40:15 21° S visible
30 Jun ? 02:11:50 10° N 02:16:37 25° WNW 02:21:42 10° WSW visible
30 Jun ? 22:48:39 10° ENE 22:51:39 13° E 22:54:42 10° ESE visible
01 Jul ? 00:27:44 10° NNE 00:33:58 72° ESE 00:38:34 21° S visible
01 Jul ? 02:10:03 10° N 02:14:56 25° WNW 02:20:06 10° WSW visible
01 Jul ? 22:47:01 10° ENE 22:49:56 13° E 22:52:54 10° ESE visible
02 Jul ? 00:26:01 10° NNE 00:32:16 71° ESE 00:36:53 21° S visible
02 Jul ? 02:08:16 10° N 02:13:15 26° WNW 02:18:31 10° WSW visible
02 Jul ? 22:45:22 10° ENE 22:48:12 13° E 22:51:04 10° ESE visible
03 Jul ? 00:24:16 10° NNE 00:30:34 69° ESE 00:35:11 21° S visible
03 Jul ? 02:06:29 10° N 02:11:34 27° WNW 02:16:54 10° WSW visible
03 Jul ? 22:43:45 10° ENE 22:46:29 13° E 22:49:14 10° ESE visible
04 Jul ? 00:22:32 10° NNE 00:28:53 68° ESE 00:33:29 21° S visible
04 Jul ? 02:04:43 10° N 02:09:52 28° WNW 02:15:17 10° WSW visible
04 Jul ? 22:42:07 10° ENE 22:44:44 12° E 22:47:24 10° ESE visible
05 Jul ? 00:20:48 10° NNE 00:27:11 67° ESE 00:31:47 21° S visible
05 Jul ? 02:02:56 10° N 02:08:11 28° WNW 02:13:41 10° WSW visible
05 Jul ? 22:40:30 10° ENE 22:43:00 12° E 22:45:31 10° ESE visible
